Location: Mercogliano
(40.9167°N, 14.7333°E)
Time: 18:53:16
(UTC+00:00)

Hubble Space Telescope - Visible Passes

Search period start: 29 November 2020 00:00
Search period end: 09 December 2020 00:00
Orbit: 536 x 540 km, 28.5° (Epoch: 29 November)

Date Brightness Start Highest point End Pass type
(mag) Time Alt. Az. Time Alt. Az. Time Alt. Az.
03 Dec 3.5 18:06:01 10° SSW 18:06:47 12° SSW 18:06:47 12° SSW visible
04 Dec 3.2 17:55:00 10° SSW 17:56:38 14° S 17:56:38 14° S visible
05 Dec 3.4 16:05:09 10° S 16:05:55 10° SSE 16:06:42 10° SSE visible
05 Dec 3.1 17:44:03 10° SSW 17:46:19 14° S 17:46:29 14° S visible
06 Dec 3.1 17:33:09 10° SW 17:35:23 14° S 17:36:23 13° SSE visible
07 Dec 3.2 17:22:19 10° SW 17:24:29 14° S 17:26:19 11° SSE visible
08 Dec 3.3 17:11:35 10° SW 17:13:33 13° S 17:15:31 10° SSE visible
